Location: Holcomb Observatory and Planetarium
(39.8415°N, 86.1714°W)
Time: 14:16:47
(UTC-05:00)

Hubble Space Telescope - Visible Passes

Search period start: 28 November 2014 00:00
Search period end: 08 December 2014 00:00
Orbit: 546 x 549 km, 28.5° (Epoch: 27 November)

Date Brightness Start Highest point End Pass type
(mag) Time Alt. Az. Time Alt. Az. Time Alt. Az.
28 Nov 3.0 05:31:36 16° S 05:31:36 16° S 05:33:52 10° SSE visible
29 Nov 3.2 05:24:32 14° S 05:24:32 14° S 05:25:59 10° SSE visible
30 Nov 3.5 05:17:28 11° SSE 05:17:28 11° SSE 05:17:57 10° SSE visible
